Wind_Speed
22 22 21 21 25 20 20 19 18 16 15 15 14 13 12 11 10 9 8 7 7 7 7 7 6 7 8 9 9 9 10 10 10 9 9 9 9 9 9 9 8 8 7 7 7 7 6 6 6
21 21 21 24 23 20 20 20 19 18 16 15 14 14 12 11 10 9 8 7 7 6 5 5 6 6 7 8 8 9 9 9 9 8 8 8 8 8 8 8 8 7 7 7 6 6 6 5 5
21 21 22 24 21 21 21 21 20 19 18 17 15 14 12 11 10 9 8 8 6 5 4 4 5 6 6 7 7 7 8 8 7 8 8 8 8 8 8 8 7 7 7 6 6 6 5 5 5
20 21 24 21 21 22 22 22 21 21 19 17 16 15 13 12 10 9 9 8 7 5 4 4 5 5 5 6 7 7 7 7 8 8 8 8 8 8 7 7 7 7 6 6 6 5 5 4 5
18 22 21 19 21 22 22 22 22 22 20 18 16 15 14 12 10 9 9 8 7 6 4 4 4 5 5 6 7 7 7 7 8 8 8 8 8 8 7 7 6 6 6 5 6 5 4 4 4
18 20 17 18 20 21 22 22 22 22 20 18 17 16 14 12 11 10 9 8 7 6 4 4 4 4 5 6 6 6 6 6 7 8 8 8 8 8 7 6 6 6 5 5 5 5 4 3 4
18 17 16 18 19 21 21 22 22 22 21 19 17 16 15 13 11 10 9 8 7 5 3 3 3 3 4 5 5 5 5 6 6 7 8 8 7 7 6 6 5 5 5 5 5 4 4 4 4
15 16 15 17 18 19 20 21 21 22 21 20 19 17 15 14 11 10 9 8 6 5 3 3 3 3 3 3 4 5 5 5 6 7 8 7 7 6 6 6 6 6 5 4 4 4 5 5 4
15 14 13 15 17 18 19 20 20 21 21 20 20 18 16 14 11 10 9 7 7 5 4 2 1 2 3 3 3 4 5 5 5 7 7 6 6 6 6 7 6 5 5 4 4 4 5 5 5
13 11 12 14 16 17 18 19 19 20 21 20 19 18 17 15 12 10 9 8 7 6 5 3 1 0 1 2 3 4 5 5 5 7 7 6 6 6 6 6 6 5 4 4 4 5 5 5 5
10 11 11 13 15 16 17 18 18 19 19 19 19 18 17 15 14 12 10 9 8 7 5 4 2 1 0 2 2 3 4 4 5 6 6 6 5 5 5 5 5 5 4 4 5 5 6 6 5
9 9 10 12 13 15 16 17 18 18 18 18 18 18 17 15 14 13 11 10 9 8 7 6 4 2 1 2 2 3 4 4 5 6 6 6 5 5 6 6 5 5 4 4 5 6 6 6 5
7 8 9 10 12 13 15 16 17 18 18 18 18 18 18 16 14 13 12 11 10 9 8 7 5 3 1 1 2 3 4 4 5 6 6 6 6 5 6 6 6 5 5 4 4 5 5 5 5
6 6 7 8 9 11 13 14 15 17 17 17 17 18 18 16 14 13 12 10 10 9 8 8 7 6 4 2 1 3 4 4 5 6 6 6 6 5 6 6 6 5 5 4 4 4 5 4 4
4 5 5 6 7 9 11 13 14 15 16 17 17 17 17 17 15 14 13 11 11 10 9 8 8 7 6 5 2 2 3 4 4 5 6 6 6 6 6 6 6 5 4 4 4 4 4 4 4
3 3 3 4 6 7 9 10 11 13 14 15 16 16 16 15 15 14 13 12 12 12 11 10 9 8 7 6 4 1 2 2 3 5 6 6 6 6 7 7 6 6 5 5 4 5 5 4 4
2 1 1 2 4 6 8 8 9 11 12 13 14 15 15 15 14 14 13 12 12 12 12 11 10 10 9 7 6 3 1 2 3 4 5 6 6 7 7 7 7 6 6 6 5 5 5 6 6
5 4 2 0 2 4 5 6 7 9 10 12 13 14 14 14 14 14 13 12 12 12 12 12 11 11 9 8 7 5 3 1 3 4 5 6 7 8 8 8 7 7 7 8 7 7 7 7 7
7 5 4 2 0 2 3 4 5 7 8 10 11 12 13 14 14 13 12 12 12 12 12 13 12 11 10 8 7 7 5 3 3 4 5 6 7 8 8 9 8 8 8 8 8 9 9 8 8
8 6 5 3 2 2 2 3 4 6 7 8 10 11 12 13 13 13 12 12 12 12 12 13 13 12 11 9 8 8 7 5 4 4 5 7 8 8 9 9 9 10 9 9 10 10 10 10 9
10 9 7 6 3 3 2 4 4 4 5 7 8 10 11 12 12 12 12 12 11 12 12 12 12 12 11 10 9 8 7 7 5 4 4 6 8 8 9 9 10 10 10 10 11 11 11 12 11
12 11 10 8 5 5 3 3 5 4 4 6 7 9 10 11 11 12 12 12 11 12 12 12 12 12 11 9 10 9 8 8 6 4 4 5 6 7 8 9 10 11 11 11 12 12 13 13 13
15 13 11 10 8 7 6 4 6 5 4 5 7 8 8 9 11 11 12 12 12 11 12 12 12 12 11 10 10 10 9 9 7 5 5 4 5 6 7 9 10 11 11 12 12 13 14 14 14
16 14 13 12 10 10 8 6 6 6 4 4 5 6 7 9 10 11 11 12 12 11 11 12 13 13 11 10 10 9 10 9 8 7 6 6 6 7 8 9 10 11 12 12 13 14 15 15 16
17 16 14 12 11 11 10 8 8 8 6 5 6 6 7 9 9 10 11 11 11 10 11 12 12 13 12 10 10 9 9 9 9 9 8 7 7 7 7 9 10 11 13 13 14 15 16 16 17
20 18 16 13 12 12 12 10 10 9 8 7 7 7 8 9 9 10 10 10 10 11 11 11 11 12 12 11 10 10 9 10 10 10 9 8 7 7 7 8 9 11 12 12 13 14 15 16 17
23 21 19 18 16 14 13 12 11 10 10 9 8 8 8 9 10 9 10 10 10 11 11 11 11 11 12 12 11 11 9 10 10 10 10 9 9 9 9 9 10 11 11 12 14 14 15 17 17
26 24 23 20 18 16 15 13 12 12 11 11 10 10 9 9 10 10 10 11 10 10 11 11 11 12 12 12 11 11 10 10 10 10 10 10 11 10 10 10 10 11 12 12 13 14 15 16 17
28 27 25 23 21 17 14 14 14 13 13 12 12 12 11 11 11 11 11 11 11 10 10 11 11 12 12 12 12 12 11 10 10 11 11 11 11 11 11 11 12 12 13 13 14 14 14 15 16
30 29 27 25 24 21 18 16 16 15 14 14 14 14 13 13 12 12 11 11 11 11 11 11 11 12 12 12 12 12 12 12 12 12 12 12 12 12 12 12 13 14 14 15 15 15 16 17 17
Wind_Direction
66 64 63 63 61 61 63 65 66 67 68 69 70 71 73 79 86 89 96 103 107 109 114 116 121 124 126 124 124 125 128 127 123 121 121 122 120 118 118 117 115 113 113 113 114 110 107 108 108
64 62 62 63 64 61 61 63 63 64 64 67 69 71 71 73 78 83 89 98 105 108 111 113 113 127 129 128 129 131 132 131 129 124 122 124 126 127 122 123 120 117 118 119 117 113 112 114 115
65 62 63 63 64 62 62 62 61 61 62 63 65 67 68 69 76 80 84 88 94 105 109 109 113 125 135 136 136 139 138 134 134 129 126 129 133 132 127 129 130 127 126 128 125 117 119 123 121
65 64 61 62 63 63 62 61 60 59 58 60 61 63 65 64 67 73 76 78 79 90 106 115 120 123 134 141 137 140 139 139 135 132 131 130 132 133 132 128 130 130 130 131 129 119 121 127 126
66 64 60 60 61 62 61 60 59 58 57 57 58 60 62 63 62 65 69 72 70 75 89 111 122 129 135 137 139 138 138 139 138 138 135 132 131 132 130 127 125 129 129 129 129 128 129 136 140
67 66 66 63 61 61 60 59 59 58 55 55 57 57 58 59 60 59 61 65 66 70 84 105 122 138 142 145 141 142 143 143 145 145 144 139 136 135 133 126 121 125 128 127 128 132 136 140 145
72 71 68 65 62 60 59 59 58 57 54 52 54 54 53 55 58 57 56 59 61 60 72 97 130 148 153 151 150 156 154 149 149 150 150 146 143 140 138 131 128 129 130 127 132 136 136 136 143
70 68 63 66 65 60 58 57 57 56 53 51 51 50 49 51 53 52 51 53 51 51 64 101 122 145 149 155 166 170 168 156 150 152 154 152 152 148 141 139 137 132 128 129 135 144 143 137 143
68 70 69 70 67 62 58 56 54 53 52 50 48 48 48 46 47 47 45 45 40 41 52 71 122 139 147 146 157 168 171 164 163 164 162 158 156 153 149 149 144 137 134 137 137 147 149 146 147
73 77 73 72 66 63 58 54 51 50 49 48 46 46 45 43 43 44 41 39 36 35 43 52 63 153 160 163 168 169 168 166 166 169 168 166 162 153 155 159 155 148 147 145 138 146 153 152 151
78 78 74 73 67 61 57 52 48 47 45 45 44 42 41 42 41 41 38 37 35 35 41 44 50 44 158 182 184 185 178 175 174 174 175 175 172 161 162 162 163 160 161 155 144 147 153 151 150
82 76 74 74 68 62 57 51 47 46 43 42 42 41 39 38 37 38 40 39 40 44 48 46 39 21 306 204 191 192 187 190 189 187 187 187 181 170 169 171 172 173 168 157 145 147 150 149 149
87 80 75 75 68 62 55 48 44 43 42 41 41 40 38 38 36 35 38 40 41 45 44 40 38 25 12 205 199 196 198 201 199 196 196 194 192 183 182 183 184 183 172 157 153 158 158 154 149
95 84 75 73 68 61 55 46 41 40 40 39 40 38 38 38 36 36 40 41 40 37 37 37 37 33 45 70 173 204 204 202 200 198 197 197 196 195 194 188 187 186 184 178 172 173 170 168 171
107 93 75 72 67 59 54 46 38 36 36 35 36 36 36 37 36 36 39 40 37 35 35 34 33 30 38 44 60 190 197 202 206 204 199 195 195 197 197 195 194 195 197 192 190 186 188 189 200
132 99 66 64 64 55 53 45 35 33 33 32 33 32 31 33 34 35 38 38 35 32 31 31 30 28 29 34 37 56 209 212 212 208 204 204 205 204 204 203 202 205 209 209 208 205 208 214 223
174 157 153 57 62 54 51 44 32 30 28 29 29 29 28 29 31 33 36 35 32 31 28 26 25 23 21 24 26 16 336 227 215 206 209 216 218 218 216 214 213 215 219 221 224 221 222 227 235
212 208 209 135 49 43 41 35 26 26 24 23 24 27 27 27 28 30 32 31 30 29 26 24 23 21 19 22 20 10 353 283 246 230 227 228 226 228 228 225 224 228 228 229 232 235 236 239 244
212 215 223 230 340 13 17 21 16 19 18 19 20 22 23 24 25 27 28 27 26 26 24 22 20 18 17 17 18 14 7 341 292 257 246 244 236 232 233 235 235 236 236 237 240 240 240 246 251
222 227 238 251 275 316 336 349 351 3 11 12 15 16 17 19 21 21 23 21 20 24 24 23 21 18 17 16 14 8 6 0 330 283 256 250 245 242 241 241 242 243 243 243 244 243 245 250 254
230 233 241 251 269 277 301 329 326 341 1 6 8 9 11 13 15 16 16 14 17 21 20 20 18 16 16 15 13 10 7 360 347 316 279 258 250 248 246 244 246 245 246 247 249 247 248 251 257
237 239 244 253 261 267 269 283 299 313 341 357 360 1 5 8 9 9 9 10 11 14 14 14 13 11 11 9 4 7 4 357 349 330 305 279 266 259 253 250 250 248 250 253 253 251 250 252 256
235 241 245 252 258 260 264 257 274 290 313 337 346 351 360 3 3 2 4 4 7 9 7 6 6 7 9 5 1 1 360 355 353 336 317 303 283 275 271 261 257 255 256 257 256 254 254 255 257
235 241 248 255 258 261 255 248 260 272 285 310 327 342 352 358 359 358 358 358 359 2 2 2 2 1 5 2 357 354 354 354 352 344 324 307 299 283 278 271 268 267 266 264 261 259 259 258 258
233 237 246 253 258 260 256 245 244 255 267 284 302 320 336 347 352 352 353 356 358 359 358 357 359 358 359 356 352 350 350 351 346 344 334 320 311 296 285 280 274 270 271 271 269 267 265 265 263
232 232 234 238 249 259 262 250 249 256 263 274 287 303 320 335 343 345 347 350 352 352 353 352 351 352 353 351 347 347 346 347 346 343 338 332 321 309 301 289 283 279 277 274 272 269 269 268 266
234 233 236 241 244 244 254 256 254 255 260 267 277 290 305 321 330 333 336 342 345 346 347 347 346 349 351 351 349 346 344 342 343 342 338 333 325 314 309 297 287 283 279 279 276 274 273 270 270
234 236 238 239 243 248 257 259 252 255 257 263 270 280 290 307 319 323 325 329 335 340 343 343 343 347 349 349 349 348 345 343 340 338 334 331 328 320 309 301 297 292 289 286 283 281 276 271 270
236 237 239 241 241 241 250 256 253 251 253 257 265 273 282 294 305 313 317 322 326 332 335 337 339 341 344 345 345 346 346 342 339 336 332 327 323 320 316 305 300 297 293 287 283 285 284 280 276
237 238 240 242 244 244 241 249 256 251 250 254 260 267 275 284 295 303 309 312 318 322 327 329 333 335 338 338 339 340 341 341 337 333 331 328 326 321 316 312 305 299 295 291 285 283 283 283 280
Height
5919 5917 5916 5915 5915 5916 5912 5911 5909 5907 5906 5905 5903 5902 5902 5902 5902 5904 5901 5900 5900 5900 5899 5899 5899 5899 5900 5900 5901 5901 5902 5902 5902 5903 5903 5904 5904 5905 5905 5906 5906 5907 5907 5908 5908 5908 5909 5909 5909
5922 5920 5920 5918 5920 5918 5915 5913 5911 5909 5908 5906 5904 5904 5903 5903 5902 5902 5901 5901 5901 5900 5900 5900 5900 5900 5901 5901 5901 5902 5902 5902 5903 5903 5904 5904 5905 5905 5906 5906 5907 5907 5908 5908 5909 5909 5909 5909 5910
5924 5923 5922 5923 5922 5920 5918 5915 5913 5911 5909 5908 5906 5905 5905 5904 5903 5903 5902 5902 5901 5901 5901 5901 5901 5901 5901 5902 5902 5902 5903 5903 5903 5904 5904 5905 5905 5906 5906 5907 5907 5908 5908 5908 5909 5909 5910 5910 5910
5927 5926 5926 5927 5924 5922 5920 5917 5915 5913 5911 5910 5908 5907 5906 5905 5905 5904 5903 5903 5902 5902 5902 5902 5902 5902 5902 5902 5903 5903 5903 5903 5904 5904 5905 5905 5906 5906 5907 5907 5907 5908 5908 5909 5909 5909 5910 5910 5910
5930 5929 5932 5930 5927 5924 5922 5919 5917 5915 5913 5911 5910 5909 5908 5907 5907 5906 5905 5904 5904 5903 5903 5903 5902 5903 5903 5903 5903 5903 5903 5904 5904 5905 5905 5906 5906 5906 5907 5907 5908 5908 5909 5909 5909 5910 5910 5910 5911
5933 5934 5936 5932 5929 5927 5924 5921 5919 5917 5915 5914 5912 5911 5909 5909 5908 5907 5906 5905 5905 5905 5904 5904 5903 5904 5904 5904 5904 5904 5904 5904 5904 5905 5905 5906 5906 5907 5907 5908 5908 5909 5909 5909 5909 5910 5910 5910 5911
5937 5937 5936 5934 5932 5929 5927 5924 5922 5920 5918 5916 5914 5912 5911 5910 5909 5908 5907 5907 5906 5905 5905 5904 5904 5904 5904 5904 5904 5904 5904 5904 5904 5905 5905 5906 5906 5907 5908 5908 5908 5909 5909 5909 5910 5910 5910 5911 5911
5938 5940 5939 5937 5934 5932 5930 5927 5924 5922 5920 5918 5916 5914 5913 5912 5910 5909 5908 5908 5907 5906 5905 5905 5904 5904 5904 5904 5904 5904 5904 5905 5905 5905 5906 5906 5907 5907 5908 5908 5909 5909 5909 5910 5910 5910 5910 5911 5911
5940 5944 5942 5939 5936 5934 5932 5929 5927 5924 5922 5920 5918 5916 5915 5913 5912 5911 5909 5908 5907 5907 5906 5905 5905 5904 5904 5904 5904 5904 5904 5904 5905 5905 5906 5906 5907 5907 5908 5908 5909 5910 5910 5910 5910 5910 5911 5911 5912
5943 5945 5942 5940 5938 5936 5934 5932 5929 5927 5924 5922 5920 5918 5916 5914 5913 5912 5910 5909 5908 5907 5907 5906 5905 5905 5904 5904 5904 5904 5904 5904 5905 5906 5906 5907 5907 5907 5908 5908 5909 5910 5910 5910 5910 5911 5911 5912 5912
5945 5945 5943 5942 5940 5938 5936 5934 5932 5929 5927 5925 5923 5920 5918 5916 5914 5913 5912 5910 5909 5908 5907 5906 5905 5904 5904 5904 5904 5904 5904 5904 5905 5905 5906 5907 5907 5907 5908 5909 5909 5910 5910 5910 5911 5911 5911 5912 5913
5946 5946 5945 5943 5942 5940 5938 5936 5934 5932 5930 5927 5925 5922 5920 5918 5916 5914 5913 5912 5910 5909 5907 5906 5905 5905 5904 5904 5904 5904 5904 5904 5905 5905 5906 5907 5907 5908 5908 5909 5909 5910 5910 5910 5911 5911 5912 5912 5913
5947 5947 5946 5945 5943 5942 5940 5938 5937 5934 5932 5929 5927 5924 5922 5919 5918 5916 5914 5913 5911 5910 5909 5907 5906 5905 5904 5903 5903 5903 5904 5904 5904 5905 5906 5906 5907 5908 5908 5909 5909 5910 5910 5911 5911 5912 5912 5913 5913
5948 5948 5947 5946 5945 5944 5942 5941 5939 5937 5934 5932 5929 5926 5924 5921 5919 5918 5916 5915 5913 5911 5910 5908 5907 5905 5904 5903 5903 5903 5903 5904 5904 5905 5905 5906 5907 5908 5908 5909 5909 5910 5910 5911 5911 5912 5912 5913 5913
5949 5949 5949 5948 5947 5945 5944 5943 5941 5939 5936 5934 5931 5929 5926 5924 5922 5920 5918 5917 5915 5913 5911 5910 5908 5906 5905 5904 5903 5903 5903 5903 5904 5904 5905 5906 5906 5907 5907 5908 5909 5910 5910 5911 5911 5912 5912 5913 5914
5949 5950 5951 5949 5948 5947 5947 5946 5943 5940 5938 5936 5933 5931 5928 5926 5924 5922 5920 5918 5916 5914 5912 5911 5909 5907 5905 5904 5904 5903 5903 5903 5903 5904 5904 5905 5906 5906 5907 5908 5908 5909 5910 5910 5911 5911 5912 5913 5913
5950 5951 5951 5950 5949 5948 5947 5946 5944 5942 5940 5937 5935 5933 5930 5928 5926 5924 5922 5920 5918 5916 5914 5912 5910 5908 5906 5905 5904 5903 5903 5903 5903 5903 5904 5904 5905 5905 5906 5907 5907 5908 5909 5909 5910 5911 5911 5912 5912
5950 5951 5951 5950 5949 5948 5948 5947 5945 5943 5941 5939 5937 5935 5932 5930 5927 5925 5924 5922 5919 5917 5915 5913 5911 5909 5907 5905 5904 5904 5903 5903 5902 5902 5903 5903 5903 5904 5905 5906 5906 5907 5908 5908 5909 5910 5910 5910 5911
5948 5949 5950 5950 5949 5948 5948 5947 5946 5944 5942 5940 5938 5936 5934 5931 5929 5927 5925 5923 5921 5918 5916 5914 5912 5910 5908 5906 5905 5904 5903 5902 5902 5901 5901 5901 5902 5903 5903 5904 5905 5905 5906 5907 5907 5908 5908 5909 5909
5946 5947 5948 5948 5948 5948 5947 5947 5946 5944 5943 5941 5939 5937 5935 5933 5931 5928 5926 5924 5922 5920 5917 5915 5913 5911 5909 5907 5905 5903 5902 5901 5901 5900 5900 5900 5900 5901 5901 5902 5903 5903 5904 5905 5906 5906 5907 5907 5907
5944 5946 5946 5947 5947 5947 5947 5947 5946 5945 5943 5942 5940 5938 5936 5934 5932 5929 5927 5925 5922 5920 5918 5916 5914 5911 5909 5907 5905 5904 5902 5901 5899 5899 5898 5898 5898 5899 5899 5900 5901 5901 5902 5903 5903 5904 5904 5905 5905
5941 5943 5944 5945 5946 5947 5947 5949 5946 5944 5943 5942 5940 5939 5937 5935 5932 5930 5928 5926 5923 5921 5919 5916 5914 5912 5910 5908 5906 5903 5902 5900 5899 5897 5897 5897 5897 5897 5897 5898 5898 5899 5900 5900 5901 5901 5902 5902 5903
5938 5940 5941 5943 5944 5945 5945 5946 5947 5944 5943 5942 5940 5939 5937 5935 5933 5931 5928 5926 5924 5922 5919 5917 5914 5912 5910 5908 5906 5904 5902 5900 5898 5897 5896 5896 5896 5895 5895 5896 5896 5896 5897 5898 5898 5898 5899 5899 5899
5935 5937 5939 5940 5942 5943 5943 5944 5945 5943 5942 5941 5940 5938 5937 5935 5933 5931 5929 5926 5924 5922 5920 5917 5914 5912 5909 5908 5906 5904 5902 5900 5898 5897 5895 5895 5894 5894 5894 5894 5894 5894 5894 5895 5895 5895 5895 5896 5896
5932 5935 5938 5939 5941 5942 5940 5941 5942 5940 5940 5939 5939 5938 5936 5935 5933 5931 5929 5926 5924 5922 5920 5917 5915 5912 5910 5908 5906 5904 5902 5900 5898 5896 5895 5894 5893 5893 5892 5892 5891 5891 5891 5891 5892 5892 5892 5892 5892
5928 5932 5935 5938 5940 5940 5937 5938 5939 5938 5938 5937 5937 5936 5935 5934 5932 5930 5928 5926 5924 5922 5919 5917 5915 5912 5910 5908 5905 5902 5901 5899 5898 5896 5894 5893 5892 5891 5890 5890 5889 5888 5888 5888 5888 5888 5888 5888 5888
5923 5927 5930 5932 5933 5935 5935 5935 5936 5935 5935 5935 5935 5934 5933 5932 5931 5929 5928 5926 5923 5921 5919 5917 5914 5912 5910 5907 5905 5902 5900 5899 5897 5895 5894 5892 5891 5889 5888 5887 5887 5886 5885 5885 5885 5884 5884 5884 5883
5919 5922 5924 5927 5929 5931 5932 5932 5934 5932 5932 5932 5932 5932 5931 5930 5929 5928 5926 5924 5922 5920 5918 5916 5914 5911 5909 5907 5904 5902 5900 5898 5896 5894 5893 5891 5889 5888 5886 5885 5884 5883 5882 5882 5881 5880 5880 5879 5879
5913 5916 5919 5922 5924 5927 5930 5932 5929 5929 5929 5929 5929 5929 5929 5928 5927 5926 5924 5923 5921 5919 5917 5915 5913 5910 5908 5906 5904 5901 5899 5897 5895 5893 5891 5889 5888 5886 5884 5883 5882 5880 5879 5878 5878 5877 5876 5876 5875
5907 5910 5913 5917 5918 5920 5924 5929 5924 5925 5925 5926 5926 5926 5925 5925 5924 5923 5922 5921 5919 5917 5915 5913 5911 5909 5907 5905 5903 5901 5898 5896 5894 5892 5890 5888 5886 5884 5882 5881 5879 5878 5876 5875 5874 5873 5873 5872 5871